CW0003 Weather Reports


Display with metric or nautical units.
time (UTC)temp
F
wind
direction
speed
MPH
gust
MPH
rain 1hr
in
rain 24hr
in
rain mn
in
humidity
%
barometer
mb
20200922111611 31 277 0.0 2.0 0.00 0.00 0.00 93 1020.9
20200922110103 31 229 0.0 1.0 0.00 0.00 0.00 92 1021.3
20200922104636 31 279 0.0 2.0 0.00 0.00 0.00 92 1021.5
20200922103147 30 269 1.0 6.0 0.00 0.00 0.00 92 1021.2
20200922101536 30 250 0.0 5.0 0.00 0.00 0.00 91 1020.9
20200922100101 30 50 0.0 0.0 0.00 0.00 0.00 91 1021.6
20200922094623 30 50 0.0 0.0 0.00 0.00 0.00 91 1021.7
20200922093031 30 50 0.0 1.0 0.00 0.00 0.00 90 1022.0
20200922091548 30 61 0.0 1.0 0.00 0.00 0.00 90 1021.9
20200922090020 30 59 0.0 0.0 0.00 0.00 0.00 90 1022.2
20200922084633 31 59 0.0 0.0 0.00 0.00 0.00 90 1022.9
20200922083133 31 59 0.0 0.0 0.00 0.00 0.00 90 1023.1
20200922081638 31 60 0.0 0.0 0.00 0.00 0.00 90 1023.2
20200922080154 31 61 0.0 0.0 0.00 0.00 0.00 89 1023.4
20200922074716 31 59 0.0 0.0 0.00 0.00 0.00 89 1023.8
20200922073054 31 59 0.0 0.0 0.00 0.00 0.00 89 1024.2
20200922071606 32 60 0.0 0.0 0.00 0.00 0.00 89 1024.2
20200922070102 32 61 0.0 0.0 0.00 0.00 0.00 89 1024.6
20200922064653 32 59 0.0 0.0 0.00 0.00 0.00 89 1024.6
20200922063031 32 59 0.0 0.0 0.00 0.00 0.00 89 1025.0
20200922061536 32 59 0.0 1.0 0.00 0.00 0.00 89 1025.0
20200922060020 32 59 0.0 0.0 0.00 0.00 0.00 89 1025.2
20200922054519 33 63 0.0 0.0 0.00 0.00 0.00 89 1025.4
20200922053009 33 43 0.0 0.0 0.00 0.00 0.00 89 1025.8
20200922051806 33 46 0.0 0.0 0.00 0.00 0.00 89 1025.9
20200922050207 34 43 0.0 0.0 0.00 0.00 0.00 89 1026.3
20200922044615 34 46 0.0 0.0 0.00 0.00 0.00 89 1026.6
20200922043052 34 51 0.0 0.0 0.00 0.00 0.00 89 1026.9
20200922041518 34 46 0.0 0.0 0.00 0.00 0.00 89 1027.1
20200922040025 35 42 0.0 0.0 0.00 0.00 0.00 88 1027.3
20200922034537 35 46 0.0 0.0 0.00 0.00 0.00 88 1027.4
20200922033015 35 43 0.0 0.0 0.00 0.00 0.00 88 1027.5
20200922031707 36 59 0.0 0.0 0.00 0.00 0.00 87 1027.7
20200922030224 36 59 0.0 0.0 0.00 0.00 0.00 87 1027.9
20200922024807 37 59 0.0 0.0 0.00 0.00 0.00 87 1028.3
20200922023219 37 60 0.0 0.0 0.00 0.00 0.00 87 1028.4
20200922021654 38 59 0.0 0.0 0.00 0.00 0.00 86 1028.6
20200922020151 38 59 0.0 0.0 0.00 0.00 0.00 86 1028.8
20200922014630 39 59 0.0 0.0 0.00 0.00 0.00 85 1029.0
20200922013135 39 59 0.0 0.0 0.00 0.00 0.00 84 1029.1
20200922011554 40 60 0.0 0.0 0.00 0.00 0.00 83 1029.3
20200922010125 41 59 0.0 0.0 0.00 0.00 0.00 82 1029.6
20200922004555 41 59 0.0 0.0 0.00 0.00 0.00 81 1029.8
20200922003035 42 59 0.0 0.0 0.00 0.00 0.00 80 1029.9
20200922001523 43 46 0.0 0.0 0.00 0.00 0.00 78 1030.1
20200922000024 45 51 0.0 0.0 0.00 0.00 0.00 76 1030.2
20200921234545 46 51 0.0 0.0 0.00 0.00 0.00 74 1030.2
20200921233030 47 46 0.0 0.0 0.00 0.00 0.00 72 1030.2
20200921231515 48 59 0.0 0.0 0.00 0.00 0.00 69 1030.1
20200921224648 52 60 0.0 0.0 0.00 0.00 0.00 61 1030.2
20200921223157 54 60 0.0 0.0 0.00 0.00 0.00 57 1030.3
20200921221653 55 60 0.0 1.0 0.00 0.00 0.00 52 1030.3
20200921220203 56 62 0.0 5.0 0.00 0.00 0.00 47 1030.6
20200921214625 57 70 0.0 4.0 0.00 0.00 0.00 50 1030.7
20200921213131 58 69 3.0 9.0 0.00 0.00 0.00 45 1030.9
20200921211609 58 76 1.0 9.0 0.00 0.00 0.00 43 1031.0
20200921210143 59 40 0.0 6.0 0.00 0.00 0.00 44 1031.1
20200921204610 59 51 2.0 7.0 0.00 0.00 0.00 42 1031.3
20200921203053 60 38 1.0 6.0 0.00 0.00 0.00 46 1031.4
20200921201656 60 91 2.0 7.0 0.00 0.00 0.00 50 1031.5
20200921200031 60 59 2.0 9.0 0.00 0.00 0.00 47 1032.0
20200921194620 61 61 2.0 9.0 0.00 0.00 0.00 44 1031.9
20200921193030 61 104 2.0 8.0 0.00 0.00 0.00 43 1032.2
20200921191518 61 13 3.0 10.0 0.00 0.00 0.00 40 1032.5
20200921190021 61 249 2.0 10.0 0.00 0.00 0.00 38 1032.5
20200921184509 61 34 1.0 10.0 0.00 0.00 0.00 39 1032.6
20200921183230 61 32 2.0 11.0 0.00 0.00 0.00 42 1032.9
20200921181718 61 33 4.0 12.0 0.00 0.00 0.00 44 1032.9
20200921180224 61 46 8.0 18.0 0.00 0.00 0.00 41 1033.0
20200921174703 61 261 4.0 12.0 0.00 0.00 0.00 42 1033.3
20200921173152 61 21 2.0 13.0 0.00 0.00 0.00 42 1033.5
20200921171711 62 263 6.0 16.0 0.00 0.00 0.00 46 1033.8
20200921170117 62 21 3.0 13.0 0.00 0.00 0.00 45 1034.0
20200921164654 61 15 5.0 10.0 0.00 0.00 0.00 50 1034.3
20200921163124 61 19 7.0 15.0 0.00 0.00 0.00 44 1034.5
20200921161621 61 90 6.0 13.0 0.00 0.00 0.00 45 1034.4
20200921160106 61 19 10.0 18.0 0.00 0.00 0.00 44 1034.5
20200921154544 60 50 3.0 11.0 0.00 0.00 0.00 42 1034.9
20200921153025 60 254 3.0 9.0 0.00 0.00 0.00 52 1034.7
20200921151538 58 19 6.0 13.0 0.00 0.00 0.00 50 1034.8
20200921150032 56 32 5.0 13.0 0.00 0.00 0.00 60 1034.9
20200921144534 53 19 2.0 11.0 0.00 0.00 0.00 64 1035.2
20200921143231 51 26 4.0 8.0 0.00 0.00 0.00 71 1035.4
20200921141712 50 260 3.0 8.0 0.00 0.00 0.00 73 1035.4
20200921140101 48 11 3.0 9.0 0.00 0.00 0.00 80 1035.5
20200921134549 46 19 3.0 7.0 0.00 0.00 0.00 85 1035.7
20200921133057 43 23 4.0 9.0 0.00 0.00 0.00 95 1035.6
20200921131550 42 5 4.0 8.0 0.00 0.00 0.00 96 1035.6
20200921130038 40 269 2.0 5.0 0.00 0.00 0.00 96 1035.6
20200921124523 38 254 1.0 6.0 0.00 0.00 0.00 96 1035.4
20200921123022 35 30 0.0 3.0 0.00 0.00 0.00 95 1035.5
20200921121539 34 34 0.0 3.0 0.00 0.00 0.00 94 1035.2
20200921120032 32 38 0.0 3.0 0.00 0.00 0.00 94 1035.4
20200921114757 31 40 0.0 0.0 0.00 0.00 0.00 93 1035.2
20200921113126 31 40 0.0 0.0 0.00 0.00 0.00 92 1035.0